• In Österreich
  • Länderverzeichnis
  • Für 7 Tage
  • Wassertemperatur
  • Satellitenkarten
  • Wetterkarte
  • News
  • Widgets
  • user-avatar
    Anmelden

    Stündliche Wetter Chipata

    Heute, 15 Oktober, Montag

    Zeit Temperatur Niederschläge Wind Luftdruck Luftfeuchtigkeit
    00:00 +26°C° 0 mm 3 m/S 678 mmHg 51%
    01:00 +25°C° 0 mm 3 m/S 678 mmHg 53%
    02:00 +25°C° 0 mm 3 m/S 678 mmHg 55%
    03:00 +24°C° 0 mm 2 m/S 678 mmHg 57%
    04:00 +24°C° 0 mm 2 m/S 678 mmHg 59%
    05:00 +23°C° 0 mm 2 m/S 678 mmHg 60%
    06:00 +25°C° 0 mm 3 m/S 678 mmHg 52%
    07:00 +27°C° 0 mm 3 m/S 679 mmHg 44%
    08:00 +29°C° 0 mm 4 m/S 680 mmHg 37%
    09:00 +33°C° 0 mm 3 m/S 680 mmHg 31%
    10:00 +35°C° 0 mm 3 m/S 680 mmHg 25%
    11:00 +37°C° 0 mm 2 m/S 680 mmHg 19%
    12:00 +38°C° 0 mm 2 m/S 679 mmHg 18%
    13:00 +39°C° 0 mm 3 m/S 679 mmHg 16%
    14:00 +39°C° 0 mm 3 m/S 678 mmHg 15%
    15:00 +38°C° 0 mm 3 m/S 678 mmHg 16%
    16:00 +37°C° 0 mm 3 m/S 677 mmHg 17%
    17:00 +36°C° 0 mm 4 m/S 677 mmHg 19%
    18:00 +34°C° 0 mm 4 m/S 677 mmHg 23%
    19:00 +33°C° 0 mm 4 m/S 677 mmHg 26%
    20:00 +30°C° 0 mm 4 m/S 677 mmHg 30%
    21:00 +29°C° 0 mm 4 m/S 678 mmHg 33%
    22:00 +28°C° 0 mm 3 m/S 678 mmHg 36%
    23:00 +28°C° 0 mm 3 m/S 678 mmHg 39%

    Morgen, 16 Oktober, Dienstag

    Zeit Temperatur Niederschläge Wind Luftdruck Luftfeuchtigkeit
    00:00 +27°C° 0 mm 3 m/S 678 mmHg 42%
    01:00 +26°C° 0 mm 2 m/S 677 mmHg 44%
    02:00 +26°C° 0 mm 2 m/S 677 mmHg 47%
    03:00 +25°C° 0 mm 2 m/S 677 mmHg 49%
    04:00 +24°C° 0 mm 1 m/S 677 mmHg 52%
    05:00 +24°C° 0 mm 1 m/S 677 mmHg 54%
    06:00 +26°C° 0 mm 2 m/S 678 mmHg 47%
    07:00 +28°C° 0 mm 3 m/S 679 mmHg 41%
    08:00 +31°C° 0 mm 3 m/S 679 mmHg 34%
    09:00 +34°C° 0 mm 3 m/S 679 mmHg 30%
    10:00 +36°C° 0 mm 3 m/S 680 mmHg 25%
    11:00 +38°C° 0 mm 3 m/S 680 mmHg 21%
    12:00 +38°C° 0 mm 3 m/S 679 mmHg 20%
    13:00 +38°C° 0 mm 3 m/S 678 mmHg 20%
    14:00 +38°C° 0 mm 3 m/S 677 mmHg 19%
    15:00 +37°C° 0 mm 4 m/S 677 mmHg 21%
    16:00 +36°C° 0 mm 4 m/S 677 mmHg 22%
    17:00 +35°C° 0 mm 4 m/S 677 mmHg 24%
    18:00 +34°C° 0 mm 4 m/S 677 mmHg 27%
    19:00 +31°C° 0 mm 3 m/S 677 mmHg 30%
    20:00 +30°C° 0 mm 3 m/S 678 mmHg 33%
    21:00 +29°C° 0 mm 3 m/S 678 mmHg 35%
    22:00 +28°C° 0 mm 3 m/S 678 mmHg 36%
    23:00 +28°C° 0 mm 2 m/S 678 mmHg 38%

    übermorgen, 17 Oktober, Mittwoch

    Zeit Temperatur Niederschläge Wind Luftdruck Luftfeuchtigkeit
    00:00 +27°C° 0 mm 2 m/S 678 mmHg 39%
    01:00 +27°C° 0 mm 2 m/S 677 mmHg 39%
    02:00 +27°C° 0 mm 2 m/S 677 mmHg 39%
    03:00 +26°C° 0 mm 2 m/S 677 mmHg 41%
    04:00 +26°C° 0 mm 2 m/S 677 mmHg 43%
    05:00 +25°C° 0 mm 2 m/S 676 mmHg 46%
    06:00 +27°C° 0 mm 3 m/S 677 mmHg 42%
    07:00 +29°C° 0 mm 3 m/S 678 mmHg 38%
    08:00 +30°C° 0 mm 4 m/S 679 mmHg 34%
    09:00 +33°C° 0 mm 4 m/S 679 mmHg 30%
    10:00 +35°C° 0 mm 4 m/S 679 mmHg 27%
    11:00 +37°C° 0 mm 3 m/S 679 mmHg 23%
    12:00 +37°C° 0 mm 3 m/S 678 mmHg 23%
    13:00 +37°C° 0 mm 3 m/S 677 mmHg 23%
    14:00 +36°C° 0 mm 4 m/S 676 mmHg 23%
    15:00 +36°C° 0 mm 3 m/S 676 mmHg 24%
    16:00 +35°C° 0 mm 3 m/S 676 mmHg 25%
    17:00 +35°C° 0 mm 3 m/S 675 mmHg 26%
    18:00 +33°C° 0 mm 3 m/S 676 mmHg 29%
    19:00 +31°C° 0 mm 3 m/S 676 mmHg 32%
    20:00 +29°C° 0 mm 3 m/S 677 mmHg 35%
    21:00 +29°C° 0 mm 3 m/S 677 mmHg 38%
    22:00 +28°C° 0 mm 3 m/S 677 mmHg 41%
    23:00 +27°C° 0 mm 2 m/S 677 mmHg 44%

    18 Oktober, Donnerstag

    Zeit Temperatur Niederschläge Wind Luftdruck Luftfeuchtigkeit
    00:00 +27°C° 0 mm 2 m/S 676 mmHg 46%
    01:00 +26°C° 0 mm 2 m/S 676 mmHg 48%
    02:00 +26°C° 0 mm 2 m/S 675 mmHg 50%
    03:00 +25°C° 0 mm 2 m/S 675 mmHg 51%
    04:00 +25°C° 0 mm 2 m/S 676 mmHg 52%
    05:00 +25°C° 0 mm 2 m/S 676 mmHg 52%
    06:00 +27°C° 0 mm 3 m/S 677 mmHg 47%
    07:00 +29°C° 0 mm 4 m/S 678 mmHg 42%
    08:00 +30°C° 0 mm 4 m/S 678 mmHg 37%
    09:00 +34°C° 0 mm 4 m/S 678 mmHg 32%
    10:00 +36°C° 0 mm 3 m/S 679 mmHg 27%
    11:00 +38°C° 0 mm 3 m/S 679 mmHg 22%
    12:00 +38°C° 0 mm 3 m/S 678 mmHg 20%
    13:00 +39°C° 0 mm 3 m/S 677 mmHg 18%
    14:00 +40°C° 0 mm 3 m/S 676 mmHg 16%
    15:00 +39°C° 0 mm 3 m/S 676 mmHg 18%
    16:00 +37°C° 0 mm 3 m/S 676 mmHg 20%
    17:00 +36°C° 0 mm 4 m/S 675 mmHg 21%
    18:00 +35°C° 0 mm 4 m/S 676 mmHg 25%
    19:00 +33°C° 0 mm 4 m/S 676 mmHg 29%
    20:00 +32°C° 0 mm 5 m/S 677 mmHg 32%
    21:00 +30°C° 0 mm 4 m/S 677 mmHg 36%
    22:00 +29°C° 0 mm 4 m/S 677 mmHg 39%
    23:00 +29°C° 0 mm 4 m/S 677 mmHg 42%

    19 Oktober, Freitag

    Zeit Temperatur Niederschläge Wind Luftdruck Luftfeuchtigkeit
    00:00 +28°C° 0 mm 3 m/S 676 mmHg 44%
    01:00 +27°C° 0 mm 3 m/S 676 mmHg 46%
    02:00 +27°C° 0 mm 2 m/S 676 mmHg 48%
    03:00 +26°C° 0 mm 2 m/S 676 mmHg 50%
    04:00 +26°C° 0 mm 2 m/S 676 mmHg 51%
    05:00 +25°C° 0 mm 2 m/S 676 mmHg 53%
    06:00 +27°C° 0 mm 2 m/S 677 mmHg 47%
    07:00 +29°C° 0 mm 3 m/S 678 mmHg 42%
    08:00 +31°C° 0 mm 3 m/S 679 mmHg 37%
    09:00 +34°C° 0 mm 3 m/S 679 mmHg 33%
    10:00 +35°C° 0 mm 3 m/S 679 mmHg 29%
    11:00 +37°C° 0 mm 4 m/S 679 mmHg 24%
    12:00 +37°C° 0 mm 4 m/S 678 mmHg 24%
    13:00 +37°C° 0 mm 4 m/S 678 mmHg 23%
    14:00 +37°C° 0 mm 4 m/S 677 mmHg 23%
    15:00 +36°C° 0 mm 4 m/S 677 mmHg 24%
    16:00 +36°C° 0 mm 3 m/S 677 mmHg 25%
    17:00 +35°C° 0 mm 3 m/S 677 mmHg 27%
    18:00 +34°C° 0 mm 3 m/S 677 mmHg 30%
    19:00 +31°C° 0 mm 3 m/S 677 mmHg 33%
    20:00 +30°C° 0 mm 3 m/S 678 mmHg 36%
    21:00 +30°C° 0 mm 3 m/S 678 mmHg 38%
    22:00 +29°C° 0 mm 2 m/S 678 mmHg 41%
    23:00 +28°C° 0 mm 2 m/S 678 mmHg 43%

    20 Oktober, Samstag

    Zeit Temperatur Niederschläge Wind Luftdruck Luftfeuchtigkeit
    00:00 +28°C° 0 mm 2 m/S 677 mmHg 45%
    01:00 +27°C° 0 mm 2 m/S 677 mmHg 47%
    02:00 +26°C° 0 mm 2 m/S 677 mmHg 50%
    03:00 +26°C° 0 mm 2 m/S 677 mmHg 51%
    04:00 +25°C° 0 mm 2 m/S 677 mmHg 52%
    05:00 +25°C° 0 mm 2 m/S 677 mmHg 54%
    06:00 +27°C° 0 mm 2 m/S 678 mmHg 48%
    07:00 +29°C° 0 mm 3 m/S 679 mmHg 41%
    08:00 +32°C° 0 mm 4 m/S 680 mmHg 35%
    09:00 +34°C° 0 mm 4 m/S 680 mmHg 31%
    10:00 +36°C° 0 mm 3 m/S 679 mmHg 27%
    11:00 +37°C° 0 mm 3 m/S 679 mmHg 23%
    12:00 +37°C° 0 mm 3 m/S 678 mmHg 23%
    13:00 +37°C° 0 mm 3 m/S 678 mmHg 23%
    14:00 +37°C° 0 mm 3 m/S 677 mmHg 23%
    15:00 +36°C° 0 mm 3 m/S 677 mmHg 25%
    16:00 +35°C° 0 mm 3 m/S 677 mmHg 26%
    17:00 +34°C° 0 mm 3 m/S 677 mmHg 28%
    18:00 +33°C° 0 mm 3 m/S 677 mmHg 30%
    19:00 +31°C° 0 mm 3 m/S 677 mmHg 33%
    20:00 +30°C° 0 mm 3 m/S 678 mmHg 36%
    21:00 +29°C° 0 mm 3 m/S 678 mmHg 39%
    22:00 +28°C° 0 mm 3 m/S 677 mmHg 42%
    23:00 +27°C° 0 mm 2 m/S 677 mmHg 45%
    Mehr zeigen